Terminal Aerodrome Forecast
Issued by NWS Chicago, IL

Home | Current Version | Previous Version | Text Only | Print | Product List | Glossary On
Versions: 1 2 3 4 5 6 7 8 9 10 11 12 13 14 15 16 17 18 19 20 21 22 23 24 25
000
FTUS43 KLOT 180520
TAFRFD
TAF
KRFD 180520Z 1806/1906 24015G19KT P6SM FEW250 WS020/24050KT
     FM181400 23014G22KT P6SM FEW250
     FM181800 23015G24KT P6SM FEW250
     FM190000 22009KT P6SM SKC=

USA.gov is the U.S. government's official web portal to all federal, state and local government web resources and services.